Theta_e
336 337 337 337 335 340 341 334 331 319 319 320 321 326 330 329 327 325 326 326 325 322 321 322 323 325 325 326 327 328 329 328 328 326 326 325 325 325
334 331 333 336 330 336 334 334 335 326 318 322 321 324 326 326 328 327 326 325 322 321 321 321 321 322 322 323 325 326 326 325 324 323 322 321 321 320
329 327 331 333 335 332 330 331 329 327 318 320 322 324 322 323 325 327 327 326 323 320 320 320 319 319 322 323 323 322 320 319 318 317 317 317 317 316
326 328 328 330 333 333 332 328 325 325 320 316 320 322 322 325 325 324 325 326 323 321 319 318 317 318 318 314 313 313 312 313 314 314 314 314 313 312
327 325 325 327 328 327 326 325 324 324 322 319 320 322 322 322 322 323 323 325 325 320 316 315 314 313 312 310 308 307 306 305 306 307 308 309 308 308
332 329 326 329 327 327 326 326 325 322 322 321 320 320 320 322 322 319 319 319 320 322 316 315 313 310 309 308 307 306 303 302 301 301 301 301 302 303
331 329 331 326 322 325 326 326 325 323 322 320 319 319 319 319 318 320 317 318 321 321 315 315 315 313 311 308 307 305 302 301 300 300 299 299 299 299
331 329 329 325 319 314 315 318 323 323 321 320 319 318 319 320 320 320 319 318 318 326 322 318 318 316 313 306 302 301 300 300 299 299 299 298 298 297
332 328 330 330 327 321 312 312 313 313 317 323 320 320 319 321 321 322 321 324 322 325 321 315 317 309 306 301 300 299 299 298 298 298 298 297 297 296
334 334 333 331 330 327 327 325 324 325 325 325 325 323 322 324 325 325 330 328 325 322 323 312 315 308 306 301 299 298 298 297 297 297 297 296 296 297
332 334 333 331 306 310 327 324 320 317 312 310 310 308 306 312 319 328 325 320 316 319 325 317 314 309 307 303 300 298 297 297 296 296 296 296 296 295
332 325 309 320 303 309 327 327 322 321 323 323 322 317 316 320 309 334 329 322 321 319 327 319 315 313 308 308 303 299 298 297 297 296 296 296 295 304
329 327 326 300 304 306 315 328 322 327 321 329 328 329 331 330 330 333 334 332 324 325 327 326 319 317 318 310 310 309 309 302 303 299 296 296 296 296
328 328 320 299 301 306 318 303 303 315 331 330 328 328 327 326 329 336 337 332 335 334 329 333 321 320 318 312 307 307 308 308 307 306 306 299 297 297
329 313 299 297 298 305 300 303 304 327 327 326 325 325 326 330 336 333 330 328 330 328 327 327 324 327 319 309 308 305 306 307 307 306 305 304 303 304
308 316 317 310 304 311 313 314 328 331 328 327 328 329 330 330 328 328 322 320 317 315 317 318 319 318 310 309 307 305 304 303 306 305 304 304 304 303
327 329 328 329 325 322 323 325 328 329 327 327 326 325 325 325 324 323 320 318 314 311 308 309 313 315 307 308 304 305 304 304 304 303 302 301 302 302
326 327 327 327 326 325 324 324 325 321 325 325 324 323 321 321 320 321 320 317 314 311 308 307 307 304 303 300 296 303 303 302 302 302 301 297 297 300
327 327 327 327 326 326 326 325 324 326 329 326 325 323 322 321 317 318 318 317 317 313 309 308 305 301 296 296 295 290 300 300 299 298 298 297 295 298
327 325 325 326 327 326 326 325 325 327 326 326 325 324 323 321 319 318 318 318 318 315 310 308 305 304 302 302 299 292 287 297 296 295 295 296 297 294
321 322 323 323 323 324 325 326 327 326 326 327 327 326 325 322 321 319 319 306 309 315 309 306 306 289 303 302 296 292 290 289 290 293 292 290 291 293
321 320 323 325 325 324 323 322 322 323 325 327 327 327 326 325 323 322 319 318 315 314 309 306 301 299 298 297 295 294 294 292 290 290 287 288 289 287
325 325 324 324 326 327 326 325 324 323 323 324 325 326 326 324 325 324 321 320 316 313 307 298 297 297 295 295 292 293 292 294 295 293 293 290 289 290
Wind_Speed
2 2 1 3 4 2 4 9 7 6 3 3 3 4 6 12 19 18 19 25 20 14 12 16 13 13 11 10 8 7 7 6 5 5 4 4 4 6
4 5 5 2 5 3 5 4 4 8 7 2 5 6 10 12 19 16 18 19 17 14 14 14 13 12 12 9 9 7 7 6 7 6 7 8 7 6
2 2 4 3 4 5 6 6 6 9 13 8 5 11 14 18 14 12 13 10 9 16 13 12 12 11 10 9 9 8 8 8 8 9 9 9 11 11
2 5 4 2 4 4 6 9 7 10 14 18 10 7 13 11 14 15 11 9 9 12 11 10 10 11 10 10 10 10 10 12 11 12 13 14 13 12
6 6 4 1 5 6 8 9 8 7 13 15 8 10 9 10 12 12 10 10 8 14 13 13 13 13 13 13 13 13 14 13 13 14 14 13 14 13
9 7 5 5 8 9 10 10 11 12 12 11 10 10 9 9 9 10 10 8 7 8 12 12 13 16 16 15 16 16 15 14 13 13 12 12 11 13
7 8 6 8 9 10 8 10 14 11 11 11 9 9 10 10 10 7 10 7 7 7 9 8 8 9 9 14 15 17 15 13 12 12 11 12 12 10
9 10 9 12 13 14 13 10 10 13 12 10 10 10 8 10 9 7 9 9 7 7 9 9 8 8 8 8 13 12 12 13 11 10 11 10 9 10
11 9 9 11 14 11 15 16 15 14 11 11 13 11 12 11 10 8 9 8 7 7 9 9 7 8 8 8 8 11 12 11 10 10 8 7 5 5
10 10 11 10 13 13 13 13 12 11 10 9 10 11 11 9 8 10 8 10 9 8 8 7 8 8 7 6 6 9 10 9 9 8 6 3 1 5
8 10 9 14 9 15 15 14 11 7 10 14 13 13 12 11 11 7 7 10 10 8 8 8 8 8 7 7 6 8 9 9 8 7 4 1 6 11
9 9 15 12 8 11 13 15 13 11 12 11 9 10 10 9 9 9 8 8 10 8 7 8 9 8 6 7 7 7 7 10 10 9 8 3 8 5
10 11 9 9 10 9 6 10 12 15 14 14 12 9 9 8 8 7 8 2 8 6 10 5 8 8 4 8 9 9 9 8 7 8 11 7 5 4
11 11 8 7 10 7 7 14 15 15 11 10 10 10 9 9 9 6 3 4 4 1 12 6 7 8 8 6 7 6 5 4 4 4 5 7 8 5
8 11 12 9 11 10 9 11 13 9 10 10 10 9 10 9 8 6 6 7 8 9 8 4 5 6 4 5 7 7 7 7 5 2 2 2 1 2
11 8 7 7 4 9 7 5 7 8 9 9 9 9 8 8 8 8 7 6 6 6 4 3 3 2 3 2 4 5 6 3 4 2 2 5 3 0
11 9 7 7 9 9 8 8 8 7 8 7 8 8 8 9 9 8 8 8 6 6 6 5 5 10 9 7 4 4 4 3 2 1 3 3 4 2
9 9 8 9 9 10 10 9 8 8 8 8 8 9 9 9 9 8 7 8 8 8 7 8 7 7 6 6 12 2 1 2 2 2 0 2 4 3
9 11 10 10 10 10 10 10 9 9 7 7 8 8 8 8 8 8 9 9 8 9 9 9 9 9 8 9 5 9 2 2 2 3 2 3 4 5
10 9 9 9 9 10 10 10 10 9 10 9 9 9 8 9 9 9 10 10 9 9 9 9 9 9 8 6 5 3 7 3 1 2 3 3 6 4
11 11 10 10 10 10 10 10 10 10 10 9 9 9 9 10 10 11 11 12 11 9 10 9 4 6 5 6 5 4 3 8 3 2 3 5 5 6
12 13 11 10 11 11 10 10 10 9 9 10 10 9 10 11 11 12 11 11 9 9 9 8 7 4 5 3 5 5 4 5 5 6 3 4 3 4
13 13 13 12 11 10 11 10 11 10 11 10 10 11 11 11 10 10 11 10 10 10 9 8 6 5 3 4 4 3 1 3 3 4 6 14 11 11
Wind_Direction
301 274 220 281 332 192 153 155 161 141 105 56 91 70 138 127 126 123 129 130 123 127 141 130 127 123 120 117 108 116 113 120 104 87 64 45 17 11
13 8 346 18 58 79 111 123 137 126 105 92 87 95 111 112 115 116 111 114 125 134 121 117 121 124 125 127 116 116 112 88 78 75 63 52 49 42
311 354 43 45 100 101 85 75 89 114 116 109 102 100 94 101 102 108 108 113 113 102 102 111 114 111 115 118 122 98 96 90 79 76 81 83 76 70
75 100 83 73 111 96 100 97 92 130 133 117 116 109 113 104 105 109 104 103 104 101 93 98 107 106 102 95 97 93 91 90 94 91 84 78 79 77
124 124 118 84 98 110 111 110 110 110 120 125 119 113 103 103 99 100 108 100 101 103 98 87 87 94 96 98 98 99 95 90 83 80 80 83 78 74
138 131 146 136 115 109 119 123 126 118 121 121 113 112 117 115 113 125 108 108 135 106 71 87 98 92 92 93 96 95 89 87 85 84 79 78 75 68
110 110 114 86 111 109 119 123 120 120 121 128 120 119 118 119 122 116 114 120 126 116 118 130 123 109 98 85 93 93 88 90 90 87 84 78 76 79
118 101 109 103 84 90 89 95 111 133 124 121 129 128 116 115 126 129 128 151 139 158 137 124 134 122 86 85 93 100 99 87 86 88 90 95 100 95
115 134 125 113 116 102 89 90 92 88 95 130 130 132 121 137 141 142 152 154 125 141 121 120 117 106 107 109 104 101 97 99 96 95 103 113 127 151
128 128 116 123 120 119 112 101 99 110 112 117 115 123 132 149 167 157 167 126 117 140 138 130 137 125 116 116 114 112 120 113 102 99 98 86 278 253
125 115 130 113 100 126 123 113 100 94 95 102 107 116 132 165 176 151 144 141 150 158 193 132 144 141 157 147 145 158 142 141 143 129 114 261 268 249
102 91 74 103 108 108 126 128 126 127 127 123 126 132 166 187 218 185 167 158 163 159 191 172 155 159 169 166 157 171 174 183 173 182 193 207 11 3
123 119 105 81 95 113 132 128 137 147 140 152 159 160 173 167 189 213 211 161 177 200 147 176 171 188 225 147 173 183 196 156 192 202 212 197 129 48
124 123 108 81 80 96 135 132 143 145 151 152 160 168 169 179 193 188 119 6 40 102 153 184 176 194 215 160 172 172 193 195 234 205 191 157 180 137
125 106 120 109 103 93 115 131 163 169 154 158 162 165 177 175 133 143 111 95 79 103 144 203 289 181 206 210 161 165 179 198 202 225 270 277 325 196
121 127 134 110 83 112 139 170 216 164 164 163 166 166 156 143 171 171 161 147 130 121 81 29 54 110 191 221 152 149 213 195 166 189 331 261 217 144
144 146 163 171 153 162 166 190 187 165 182 156 160 154 165 177 177 172 176 169 167 157 146 140 109 64 63 17 181 177 166 179 161 82 282 303 305 120
165 173 181 184 178 176 176 188 173 191 196 174 168 180 182 184 176 180 182 185 182 175 168 156 157 137 134 103 36 91 131 230 186 202 179 330 298 304
201 190 190 196 198 195 198 191 195 183 208 197 182 195 195 196 172 191 196 199 203 180 181 171 186 182 185 184 127 71 256 101 354 289 329 287 303 292
222 209 205 204 209 206 202 207 204 196 200 209 205 199 204 202 194 210 208 210 213 190 189 180 198 211 226 210 149 108 16 108 350 328 306 322 271 253
212 232 210 207 208 215 215 212 213 211 199 205 212 209 203 210 212 208 218 208 206 196 199 192 156 39 79 86 93 135 127 70 39 342 348 303 308 306
213 218 228 217 209 212 211 212 214 210 208 197 208 216 211 211 219 210 221 214 200 204 197 139 114 164 163 136 125 91 117 149 193 200 195 259 341 322
222 217 218 224 223 220 218 216 216 213 208 214 209 215 218 218 216 226 214 224 184 189 160 130 158 168 153 102 104 91 126 235 241 201 220 210 216 226